Weather in Buturlinka

Russia / Saratov Oblast     52°21′15″N   44°30′47″E
temp.,
°C
wind,
m/s
gust,
m/s
humid.,
%
clouds,
%
prec.,
mm/h
press.,
hPa
HPBL,
m
6 march, sat
sat601:00−10wnw239170 0.0 101521
04:00−11wnw229181 0.0 101621
07:00−12nw119498 0.0 101621
10:00−8w019299 0.0 101729
13:00−6e1188100 0.0 1016227
16:00−5ne1188100 0.0 1014255
19:00−8sse1194100 0.1 101421
22:00−8wnw1297100 0.3 101421
7 march, sun
sun701:00−9nnw3596100 0.4 1014114
04:00−13nw459792 0.4 101583
07:00−16w449657 0.0 101665
10:00−12wsw599429 0.0 1016266
13:00−8sw7128849 0.0 1014603
16:00−5sw8148266 0.0 1010951
19:00−4sw91777100 0.0 10061071
22:00−4sw102077100 0.0 10031112
8 march, mon
mon801:00−3wsw101794100 0.7 1001944
04:00−3wsw81495100 1.4 1001801
07:00−10wsw5118156 0.0 1003194
10:00−6sw7148228 0.0 1003453
13:00−3wsw9168768 0.0 10021484
16:00−4w8147484 0.3 10031091
19:00−10w478844 0.0 1005107
22:00−13w479527 0.0 1008120
9 march, tue
tue901:00−14w47960 0.0 1009117
04:00−15w489620 0.0 1011144
07:00−16w449897 0.0 101276
10:00−14wnw359697 0.1 1013170
13:00−10wnw349093 0.0 1014372
16:00−9wnw348996 0.1 1015553
19:00−14wnw3495100 0.0 101538
22:00−15nw3396100 0.0 101742
10 march, wed
wed1001:00−14nw3697100 0.1 1018166
04:00−20nw349987 0.1 101961
07:00−22nw479826 0.0 102190
10:00−21nw589513 0.0 1022283
13:00−18nw479068 0.0 1023494
16:00−17nw578983 0.0 1023537
19:00−21nw349695 0.0 102425
22:00−24nw239850 0.0 102620